Location: Newark
(48.8604°N, 2.3376°E)
Time: 17:51:46
(UTC+00:00)

XW-2C - Pass Details

Date: 14 December 2021
Orbit: 503 x 523 km, 97.5° (Epoch: 17 January)

Event Time Altitude Azimuth Distance (km) Brightness Sun altitude
Rises 05:52:40 0° 14° (NNE) 2,671 ? -16.1°
Reaches altitude 10° 05:54:47 10° 16° (NNE) 1,776 ? -15.8°
Maximum altitude 05:58:37 74° 102° (ESE) 550 ? -15.2°
Drops below altitude 10° 06:02:24 10° 188° (S) 1,753 ? -14.6°
Sets 06:04:29 0° 190° (S) 2,633 ? -14.3°
